Regional Weather Roundup
Issued by NWS

Home | Current Version | Previous Version | Graphics & Text | Print | Product List | Glossary On
Versions: 1 2 3 4 5 6 7 8 9 10 11 12 13 14 15 16 17 18 19 20 21 22 23 24 25 26 27
000
ASUS45 KSLC 300310
RWRUT

UTAH REGIONAL WEATHER ROUNDUP
NATIONAL WEATHER SERVICE SALT LAKE CITY UT
900 PM MDT WED OCT 29 2014

UTZ001>011-023>025-300400-

NORTHERN UTAH

CITY           SKY/WX    TMP DP  RH WIND       PRES   REMARKS
BRIGHAM CITY   CLEAR     47  30  51 CALM      30.26S
HILL AFB       PTCLDY    52  24  33 E8        30.26R
LOGAN          CLEAR     42  29  59 S3        30.26R
OGDEN          PTCLDY    51  24  34 N5        30.25R
PROVO AIRPORT  CLEAR     46  27  46 CALM      30.26S
SALT LAKE CITY PTCLDY    49  34  56 SE6       30.24S
VERNAL         CLEAR     42  26  53 W6        30.27R
WENDOVER       CLEAR     48  25  40 CALM      30.24S
HEBER CITY     CLEAR     37  23  56 SE7       30.30R WCI  32
WEST JORDAN    CLEAR     48  30  49 SW6       30.27R

$$

UTZ012>022-026-027-300400-

SOUTHERN/CENTRAL UTAH

CITY           SKY/WX    TMP DP  RH WIND       PRES   REMARKS
BLANDING       CLEAR     44  15  30 N9        30.37R
BRYCE CANYON   CLEAR     34  20  56 W6        30.38R WCI  29
CEDAR CITY     CLEAR     53  17  24 SE8       30.25S
DELTA          CLEAR     49  21  33 NE7       30.25R
HANKSVILLE       N/A     52  16  24 CALM      30.26R
MILFORD        PTCLDY    51  21  30 CALM      30.23S
MOAB/CYNLANDS  CLEAR     45  12  26 W6        30.23F
PRICE          CLEAR     46  15  28 NE8       30.30R
ST GEORGE      CLEAR     66  19  16 CALM      30.14R
KANAB            N/A     52  21  30 NE5       30.27R

$$

REGIONAL REPORTS     COLORADO/ARIZONA

CITY           SKY/WX    TMP DP  RH WIND       PRES   REMARKS
CRAIG, CO      CLEAR     37  22  54 CALM      30.31R
GRAND JUNCTION CLEAR     44  18  35 NE5       30.27R
RIFLE          CLEAR     47  19  33 E3        30.28R
MONTROSE       CLEAR     42  24  49 S9        30.34R
CORTEZ         CLEAR     39  15  37 NE10      30.31R WCI  32
PAGE, AZ       CLEAR     57  21  24 SW5       30.22R
GRAND CANYON   CLEAR     37  16  42 CALM      30.33R
KINGMAN          N/A    N/A N/A N/A MISG      30.13R
FLAGSTAFF      CLEAR     42  23  46 CALM      30.35R

$$

REGIONAL REPORTS    NEVADA/IDAHO/WYOMING

CITY           SKY/WX    TMP DP  RH WIND       PRES   REMARKS
LAS VEGAS, NV  CLEAR     73  22  14 SW8       30.03R
ELY            PTCLDY    43  17  35 S10       30.28R
ELKO           CLEAR     49  26  41 E3        30.23R
POCATELLO, ID  CLOUDY    55  36  48 SW9       30.24S
BURLEY         CLOUDY    47  36  65 CALM      30.22R
EVANSTON, WY   PTCLDY    45  24  43 W13       30.34S
ROCK SPRINGS   CLEAR     43  27  53 W7        30.30S
KEMMERER       CLEAR     41  30  65 CALM      30.33S

$$



USA.gov is the U.S. government's official web portal to all federal, state and local government web resources and services.